When you browse on this site, cookies collect data to enhance your experience and personalize the content and advertising you see.
Visit our Privacy Policy to learn more. By continuing to use the site, you agree to this use of cookies and data.
  • In United Kingdom
  • List of Countries
  • For 7 days
  • Water Temperature
  • Weather Map
  • Weather Widgets
  • user-avatar
    Login

    Hourly Weather Uida

    Today, 22 October, Tuesday

    Time Temperature Precipitation Wind Pressure Humidity
    00:00 +26°C° 0 mm 3 mps 757 mmHg 89%
    01:00 +26°C° 0 mm 3 mps 756 mmHg 90%
    02:00 +26°C° 0 mm 3 mps 756 mmHg 90%
    03:00 +26°C° 0 mm 3 mps 755 mmHg 91%
    04:00 +26°C° 0 mm 2 mps 756 mmHg 91%
    05:00 +26°C° 0 mm 2 mps 756 mmHg 91%
    06:00 +26°C° 0 mm 2 mps 756 mmHg 91%
    07:00 +27°C° 0 mm 2 mps 757 mmHg 85%
    08:00 +29°C° 0 mm 2 mps 757 mmHg 79%
    09:00 +30°C° 0 mm 3 mps 757 mmHg 73%
    10:00 +31°C° 0 mm 3 mps 756 mmHg 69%
    11:00 +33°C° 0 mm 4 mps 756 mmHg 65%
    12:00 +34°C° 0 mm 4 mps 755 mmHg 61%
    13:00 +34°C° 0.2 mm 4 mps 754 mmHg 64%
    14:00 +34°C° 0.2 mm 5 mps 754 mmHg 66%
    15:00 +33°C° 0.2 mm 5 mps 753 mmHg 68%
    16:00 +32°C° 0.1 mm 5 mps 753 mmHg 73%
    17:00 +29°C° 0.1 mm 4 mps 754 mmHg 78%
    18:00 +28°C° 0.1 mm 4 mps 754 mmHg 82%
    19:00 +28°C° 0.1 mm 4 mps 755 mmHg 84%
    20:00 +27°C° 0.1 mm 3 mps 755 mmHg 86%
    21:00 +27°C° 0.1 mm 3 mps 756 mmHg 87%
    22:00 +27°C° 0.2 mm 3 mps 755 mmHg 89%
    23:00 +27°C° 0.2 mm 3 mps 755 mmHg 90%

    Tomorrow, 23 October, Wednesday

    Time Temperature Precipitation Wind Pressure Humidity
    00:00 +27°C° 0.2 mm 3 mps 755 mmHg 91%
    01:00 +27°C° 0.2 mm 3 mps 755 mmHg 91%
    02:00 +26°C° 0.2 mm 3 mps 754 mmHg 91%
    03:00 +26°C° 0.2 mm 3 mps 754 mmHg 91%
    04:00 +26°C° 0 mm 3 mps 754 mmHg 91%
    05:00 +26°C° 0 mm 3 mps 755 mmHg 91%
    06:00 +26°C° 0 mm 3 mps 755 mmHg 91%
    07:00 +28°C° 0 mm 4 mps 755 mmHg 85%
    08:00 +29°C° 0 mm 4 mps 756 mmHg 80%
    09:00 +32°C° 0 mm 4 mps 756 mmHg 74%
    10:00 +33°C° 0 mm 4 mps 756 mmHg 71%
    11:00 +33°C° 0 mm 5 mps 755 mmHg 68%
    12:00 +34°C° 0 mm 5 mps 755 mmHg 65%
    13:00 +33°C° 0 mm 5 mps 754 mmHg 66%
    14:00 +33°C° 0 mm 5 mps 754 mmHg 67%
    15:00 +33°C° 0 mm 5 mps 753 mmHg 69%
    16:00 +30°C° 0 mm 5 mps 754 mmHg 74%
    17:00 +29°C° 0 mm 5 mps 754 mmHg 79%
    18:00 +28°C° 0 mm 4 mps 754 mmHg 84%
    19:00 +28°C° 0 mm 4 mps 755 mmHg 86%
    20:00 +27°C° 0 mm 4 mps 756 mmHg 88%
    21:00 +27°C° 0 mm 3 mps 756 mmHg 89%
    22:00 +27°C° 0 mm 3 mps 756 mmHg 90%
    23:00 +27°C° 0 mm 3 mps 756 mmHg 91%

    Day after tomorrow, 24 October, Thursday

    Time Temperature Precipitation Wind Pressure Humidity
    00:00 +27°C° 0 mm 3 mps 756 mmHg 91%
    01:00 +26°C° 0 mm 3 mps 756 mmHg 92%
    02:00 +26°C° 0 mm 3 mps 756 mmHg 92%
    03:00 +26°C° 0 mm 3 mps 756 mmHg 92%
    04:00 +26°C° 0 mm 3 mps 756 mmHg 92%
    05:00 +26°C° 0 mm 4 mps 756 mmHg 92%
    06:00 +26°C° 0 mm 4 mps 756 mmHg 92%
    07:00 +28°C° 0 mm 4 mps 756 mmHg 86%
    08:00 +29°C° 0 mm 4 mps 757 mmHg 79%
    09:00 +32°C° 0 mm 4 mps 757 mmHg 73%
    10:00 +33°C° 0 mm 4 mps 757 mmHg 68%
    11:00 +34°C° 0 mm 4 mps 756 mmHg 64%
    12:00 +35°C° 0 mm 4 mps 756 mmHg 59%
    13:00 +34°C° 0.3 mm 4 mps 755 mmHg 62%
    14:00 +33°C° 0.3 mm 4 mps 755 mmHg 64%
    15:00 +33°C° 0.3 mm 4 mps 755 mmHg 67%
    16:00 +32°C° 0 mm 4 mps 755 mmHg 71%
    17:00 +29°C° 0 mm 4 mps 755 mmHg 75%
    18:00 +28°C° 0 mm 4 mps 755 mmHg 79%
    19:00 +28°C° 0 mm 3 mps 756 mmHg 80%
    20:00 +28°C° 0 mm 3 mps 756 mmHg 81%
    21:00 +27°C° 0 mm 3 mps 756 mmHg 82%
    22:00 +27°C° 0 mm 3 mps 756 mmHg 83%
    23:00 +27°C° 0 mm 3 mps 756 mmHg 83%

    25 October, Friday

    Time Temperature Precipitation Wind Pressure Humidity
    00:00 +27°C° 0 mm 3 mps 756 mmHg 83%
    01:00 +27°C° 0 mm 3 mps 756 mmHg 83%
    02:00 +27°C° 0 mm 2 mps 756 mmHg 84%
    03:00 +27°C° 0 mm 2 mps 755 mmHg 84%
    04:00 +27°C° 0 mm 2 mps 756 mmHg 85%
    05:00 +27°C° 0 mm 3 mps 756 mmHg 85%
    06:00 +27°C° 0 mm 3 mps 756 mmHg 85%
    07:00 +28°C° 0 mm 3 mps 756 mmHg 83%
    08:00 +29°C° 0 mm 4 mps 757 mmHg 81%
    09:00 +30°C° 0 mm 4 mps 757 mmHg 79%
    10:00 +30°C° 0 mm 4 mps 756 mmHg 75%
    11:00 +32°C° 0 mm 5 mps 756 mmHg 72%
    12:00 +33°C° 0 mm 5 mps 755 mmHg 68%
    13:00 +33°C° 0.1 mm 5 mps 755 mmHg 69%
    14:00 +32°C° 0.1 mm 5 mps 755 mmHg 70%
    15:00 +32°C° 0.1 mm 6 mps 754 mmHg 71%
    16:00 +30°C° 0.4 mm 5 mps 755 mmHg 75%
    17:00 +29°C° 0.4 mm 4 mps 755 mmHg 79%
    18:00 +28°C° 0.4 mm 3 mps 756 mmHg 84%
    19:00 +27°C° 1.6 mm 2 mps 756 mmHg 85%
    20:00 +27°C° 1.6 mm 2 mps 757 mmHg 87%
    21:00 +27°C° 1.6 mm 2 mps 758 mmHg 88%
    22:00 +26°C° 0.5 mm 2 mps 757 mmHg 88%
    23:00 +26°C° 0.5 mm 2 mps 757 mmHg 89%

    26 October, Saturday

    Time Temperature Precipitation Wind Pressure Humidity
    00:00 +26°C° 0.5 mm 2 mps 757 mmHg 89%
    01:00 +25°C° 0.2 mm 2 mps 757 mmHg 89%
    02:00 +25°C° 0.2 mm 2 mps 756 mmHg 88%
    03:00 +25°C° 0.2 mm 1 mps 756 mmHg 88%
    04:00 +25°C° 0.4 mm 2 mps 756 mmHg 90%
    05:00 +25°C° 0.4 mm 2 mps 756 mmHg 91%
    06:00 +25°C° 0.4 mm 2 mps 757 mmHg 92%
    07:00 +26°C° 0.1 mm 1 mps 757 mmHg 90%
    08:00 +26°C° 0.1 mm 1 mps 757 mmHg 87%
    09:00 +27°C° 0.1 mm 1 mps 757 mmHg 84%
    10:00 +28°C° 0 mm 1 mps 757 mmHg 82%
    11:00 +28°C° 0 mm 1 mps 756 mmHg 80%
    12:00 +29°C° 0 mm 1 mps 756 mmHg 78%
    13:00 +29°C° 0 mm 1 mps 755 mmHg 77%
    14:00 +29°C° 0 mm 1 mps 755 mmHg 76%
    15:00 +29°C° 0 mm 2 mps 754 mmHg 75%
    16:00 +28°C° 0.2 mm 2 mps 755 mmHg 78%
    17:00 +28°C° 0.2 mm 2 mps 755 mmHg 82%
    18:00 +27°C° 0.2 mm 2 mps 755 mmHg 86%
    19:00 +27°C° 0.1 mm 1 mps 756 mmHg 86%
    20:00 +27°C° 0.1 mm 1 mps 756 mmHg 87%
    21:00 +26°C° 0.1 mm 1 mps 757 mmHg 88%
    22:00 +26°C° 0 mm 1 mps 757 mmHg 88%
    23:00 +26°C° 0 mm 1 mps 757 mmHg 89%

    27 October, Sunday

    Time Temperature Precipitation Wind Pressure Humidity
    00:00 +26°C° 0 mm 2 mps 756 mmHg 89%
    01:00 +26°C° 0 mm 2 mps 756 mmHg 89%
    02:00 +26°C° 0 mm 2 mps 756 mmHg 89%
    03:00 +26°C° 0 mm 3 mps 755 mmHg 89%
    04:00 +26°C° 0 mm 2 mps 755 mmHg 90%
    05:00 +26°C° 0 mm 2 mps 756 mmHg 90%
    06:00 +25°C° 0 mm 2 mps 756 mmHg 90%
    07:00 +27°C° 0 mm 2 mps 756 mmHg 84%
    08:00 +28°C° 0 mm 2 mps 756 mmHg 78%
    09:00 +30°C° 0 mm 2 mps 757 mmHg 73%
    10:00 +30°C° 0.1 mm 2 mps 756 mmHg 72%
    11:00 +31°C° 0.1 mm 2 mps 756 mmHg 71%
    12:00 +31°C° 0.1 mm 3 mps 755 mmHg 70%
    13:00 +31°C° 0.2 mm 3 mps 754 mmHg 71%
    14:00 +32°C° 0.2 mm 4 mps 754 mmHg 72%
    15:00 +30°C° 0.2 mm 4 mps 754 mmHg 74%
    16:00 +30°C° 0.2 mm 4 mps 754 mmHg 77%
    17:00 +29°C° 0.2 mm 4 mps 754 mmHg 80%
    18:00 +28°C° 0.2 mm 4 mps 755 mmHg 84%
    19:00 +28°C° 0.2 mm 4 mps 755 mmHg 84%
    20:00 +28°C° 0.2 mm 4 mps 756 mmHg 84%
    21:00 +28°C° 0.2 mm 4 mps 756 mmHg 84%
    22:00 +27°C° 0.6 mm 4 mps 756 mmHg 86%
    23:00 +27°C° 0.6 mm 4 mps 756 mmHg 87%

    28 October, Monday

    Time Temperature Precipitation Wind Pressure Humidity
    00:00 +27°C° 0.6 mm 4 mps 756 mmHg 89%
    01:00 +26°C° 4.4 mm 4 mps 755 mmHg 91%
    02:00 +26°C° 4.4 mm 4 mps 755 mmHg 93%
    03:00 +25°C° 4.4 mm 3 mps 754 mmHg 95%
    04:00 +25°C° 5 mm 3 mps 755 mmHg 95%
    05:00 +25°C° 5 mm 2 mps 755 mmHg 95%
    06:00 +25°C° 5 mm 2 mps 755 mmHg 95%
    07:00 +26°C° 0.4 mm 2 mps 756 mmHg 93%
    08:00 +26°C° 0.4 mm 2 mps 756 mmHg 90%
    09:00 +27°C° 0.4 mm 2 mps 757 mmHg 88%
    10:00 +27°C° 0 mm 2 mps 756 mmHg 86%
    11:00 +28°C° 0 mm 2 mps 755 mmHg 84%
    12:00 +28°C° 0 mm 1 mps 755 mmHg 82%
    13:00 +29°C° 0.1 mm 2 mps 754 mmHg 79%
    14:00 +30°C° 0.1 mm 3 mps 754 mmHg 76%
    15:00 +30°C° 0.1 mm 3 mps 754 mmHg 73%
    16:00 +29°C° 0.3 mm 3 mps 754 mmHg 77%
    17:00 +28°C° 0.3 mm 3 mps 754 mmHg 81%
    18:00 +27°C° 0.3 mm 3 mps 755 mmHg 86%
    19:00 +26°C° 0.8 mm 3 mps 755 mmHg 87%
    20:00 +26°C° 0.8 mm 3 mps 756 mmHg 89%
    21:00 +26°C° 0.8 mm 3 mps 756 mmHg 90%
    22:00 +26°C° 0.2 mm 3 mps 756 mmHg 90%
    23:00 +26°C° 0.2 mm 3 mps 756 mmHg 90%
    Show more